星链-1923 (STARLINK-1923 )

导读 | 星芒AI

STARLINK-1923 是 SpaceX Starlink 互联网卫星星座的一部分,属于第二代 Starlink 卫星(Gen2)。该卫星于2023年发射,旨在为全球用户提供高速、低延迟的宽带互联网服务。与早期型号相比,STARLINK-1923 搭载更先进的激光通信系统和更高性能的星载设备,提升了网络容量和连接稳定性。它运行在中低轨道,有助于减少信号延迟并提高服务质量。该卫星是 SpaceX 扩展全球卫星互联网覆盖计划的重要组成部分。

基本信息
目录编号:
46754
目录名称:
STARLINK-1923
国际标识:
2020-074R
轨道中心:
EARTH
卫星名称:
星链-1923
卫星全名:
星链-1923 (STARLINK-1923 )
卫星状态:
已陨落 最后检测时间 2024-12-02
发射日期:
2020-10-24 UTC
国别 :
美国 (US)
星等 :
--
轨道信息
数据来源 国际轨道数据
星历时间: 2024-12-02T14:16:28+0800
轨道信息已过期335天
半长轴: 6549.671km
偏心率: 0.0007043
轨道倾角: 53.030°
近地点辐角 216.436°
升交点赤经 206.043°
平近点角 245.038°
近地点: 166.923km
远地点: 176.149km
周期: 87.920分钟
每日圈数: 16.378479
详细信息
固有亮度:
5
最大亮度:
2.5
卫星平台:
Starlink V1.0
覆盖范围:
全球
运营商:
太空探索技术公司
运营商所在国:
美国
制造商(研发单位):
太空探索技术公司
制造商所在国:
美国
使用方式:
暂无
卫星简介
星链(Starlink)计划是由太空探索技术公司(SpaceX)提出的一个巨型低轨卫星互联网星座项目,计划在2019年至2024年间在太空搭建由约1.2万颗卫星组成的“星链”网络,其中1584颗将部署在地球上空550千米处的近地轨道,并从2020年开始工作。该卫星仍在工作。